Location: Lancaster
(54.0470°N, 2.8020°W)
Time: 03:46:54
(UTC+00:00)

COSMOS 2428 - Visible Passes

Search period start: 23 December 2014 00:00
Search period end: 02 January 2015 00:00
Orbit: 842 x 859 km, 71.0° (Epoch: 22 December)

Date Brightness Start Highest point End Pass type
(mag) Time Alt. Az. Time Alt. Az. Time Alt. Az.
23 Dec 4.8 04:35:46 10° SSE 04:40:17 25° ESE 04:44:49 10° NE visible
23 Dec 2.6 06:18:15 10° SW 06:24:00 77° NW 06:29:46 10° NNE visible
24 Dec 4.8 04:23:27 10° SSE 04:27:58 25° ESE 04:32:29 10° NE visible
24 Dec 2.6 06:05:55 10° SW 06:11:40 77° NW 06:17:27 10° NNE visible
25 Dec 4.7 04:12:05 14° SSE 04:15:38 25° ESE 04:20:09 10° NE visible
25 Dec 2.6 05:54:14 13° SW 05:59:21 77° NW 06:05:07 10° NNE visible
25 Dec 3.8 07:39:51 10° W 07:44:32 25° NNW 07:49:14 10° NNE visible
26 Dec 4.7 04:01:50 22° SE 04:03:19 24° ESE 04:07:50 10° NE visible
26 Dec 2.6 05:43:56 29° SW 05:47:01 77° NW 05:52:48 10° NNE visible
26 Dec 3.8 07:27:31 10° W 07:32:13 25° NNW 07:36:55 10° NNE visible
27 Dec 4.6 03:51:00 24° ESE 03:51:00 24° ESE 03:55:30 10° NE visible
27 Dec 2.6 05:33:04 49° SW 05:34:42 78° NW 05:40:28 10° NNE visible
27 Dec 3.8 07:15:11 10° W 07:19:53 25° NNW 07:24:35 10° NNE visible
28 Dec 4.8 03:39:50 23° E 03:39:50 23° E 03:43:10 10° NE visible
28 Dec 2.6 05:21:53 72° WSW 05:22:22 78° NW 05:28:08 10° NNE visible
28 Dec 3.8 07:03:56 14° W 07:07:33 25° NNW 07:12:15 10° NNE visible
29 Dec 5.0 03:28:28 20° ENE 03:28:28 20° ENE 03:30:51 10° NE visible
29 Dec 2.7 05:10:30 73° N 05:10:30 73° N 05:15:49 10° NNE visible
29 Dec 3.8 06:52:32 18° WNW 06:55:13 25° NNW 06:59:56 10° NNE visible
30 Dec 5.2 03:16:56 16° ENE 03:16:56 16° ENE 03:18:31 10° NE visible
30 Dec 3.1 04:58:58 56° NNE 04:58:58 56° NNE 05:03:29 10° NNE visible
30 Dec 3.8 06:41:00 21° WNW 06:42:54 25° NNW 06:47:36 10° NNE visible
31 Dec 5.4 03:05:18 14° ENE 03:05:18 14° ENE 03:06:11 10° NE visible
31 Dec 3.5 04:47:19 44° NNE 04:47:19 44° NNE 04:51:09 10° NNE visible
31 Dec 3.8 06:29:20 24° NW 06:30:34 25° NNW 06:35:16 10° NNE visible
01 Jan 5.6 02:53:34 11° NE 02:53:34 11° NE 02:53:51 10° NE visible
01 Jan 3.9 04:35:35 35° NNE 04:35:35 35° NNE 04:38:49 10° NNE visible
01 Jan 3.8 06:17:36 25° NW 06:18:14 25° NNW 06:22:56 10° NNE visible
